Wind_Speed
28 28 29 30 32 33 34 34 36 38 41 44 46 46 47 48 49 50 51 50 49 48 48 47 46 46 46 46 45 44 43 42 42 42 42 41 40 39 38 37 38 38 38
27 28 29 29 29 30 30 31 32 35 37 39 41 43 46 47 49 51 51 51 50 50 49 49 49 48 48 48 46 45 45 44 44 44 44 43 43 41 40 40 40 40 40
25 27 27 26 27 26 27 29 31 33 35 37 40 41 44 46 48 49 50 50 50 50 50 50 51 50 50 50 49 48 47 46 46 46 46 46 44 44 43 43 43 42 42
23 23 23 23 24 25 26 26 27 30 33 36 38 40 43 44 45 46 47 48 49 49 50 51 51 51 51 50 51 50 49 48 48 47 47 47 46 46 45 44 44 44 44
21 21 21 21 22 23 24 25 26 28 30 32 35 37 38 39 41 43 43 45 47 49 48 49 50 51 51 50 51 51 50 49 48 48 47 47 47 47 45 45 44 45 45
19 20 20 20 21 22 23 24 25 26 27 28 30 32 34 36 38 39 40 42 44 46 46 46 48 49 49 49 49 49 48 48 48 48 49 49 49 47 46 46 45 46 46
18 18 19 20 20 20 22 23 23 24 24 25 27 29 32 35 37 38 40 41 42 43 43 45 45 46 47 48 48 48 49 49 48 48 48 48 48 48 48 48 48 48 48
16 17 17 18 19 20 20 21 22 23 24 25 25 26 28 30 32 34 36 38 39 40 41 42 42 43 45 47 47 47 48 49 49 49 49 49 49 49 48 49 50 50 50
14 14 15 16 18 18 18 18 19 21 22 23 24 24 25 27 29 32 34 36 37 38 39 41 42 42 43 45 47 47 48 49 50 50 50 50 50 49 49 49 50 52 52
13 14 15 15 16 17 16 15 16 17 18 20 21 22 24 25 27 28 29 31 33 35 37 39 39 41 43 45 47 47 47 49 50 50 50 49 49 51 51 50 50 52 53
15 15 15 16 16 16 16 15 15 15 15 16 17 19 21 22 23 25 27 29 30 32 35 38 38 39 41 44 46 45 46 48 48 49 50 50 50 51 52 51 50 52 53
15 15 15 14 14 14 14 14 14 14 14 15 15 16 18 21 22 24 26 28 29 31 33 34 36 37 39 41 44 45 45 47 47 48 50 50 50 51 52 52 51 52 53
14 14 14 14 14 13 13 13 13 13 13 13 14 15 16 17 20 22 23 26 28 30 30 32 33 34 35 38 39 42 43 45 46 47 49 49 50 50 52 53 52 52 53
13 13 13 14 14 13 13 14 14 15 14 13 13 13 14 15 16 19 21 22 23 25 26 29 31 32 33 35 36 38 39 41 43 45 47 48 49 50 50 52 52 53 54
12 12 13 13 14 14 14 14 14 15 15 15 14 15 14 14 16 17 20 21 23 24 26 27 27 29 31 33 35 36 38 39 41 42 44 45 48 49 49 51 52 53 54
13 13 13 13 14 14 14 14 14 15 16 16 16 17 17 17 18 19 20 21 23 24 25 25 25 27 29 30 33 35 36 38 40 41 42 44 46 48 49 50 51 53 52
14 14 14 13 13 13 14 15 15 16 17 17 17 18 18 18 19 20 20 22 22 22 23 24 25 27 29 30 32 33 35 37 39 41 42 43 45 46 47 49 50 52 52
15 15 15 15 14 14 15 16 17 18 19 19 19 19 19 19 19 20 21 21 22 22 23 23 23 25 27 29 31 32 34 35 37 39 41 42 43 44 44 46 47 49 51
15 15 16 16 16 17 18 18 19 19 20 20 20 20 21 21 21 21 22 22 23 24 25 25 26 27 29 30 31 33 34 35 36 37 37 37 38 40 41 43 44 46 47
16 17 17 18 19 20 20 21 20 21 21 21 21 22 22 23 23 24 24 24 25 26 27 28 29 30 31 31 32 33 34 35 36 37 37 38 39 40 41 42 42 43 44
19 20 20 21 22 22 22 22 22 23 23 23 24 24 25 25 25 25 25 26 27 28 28 29 31 32 32 32 32 33 33 35 36 37 39 39 40 40 41 42 42 42 42
21 22 23 24 24 24 24 24 24 25 25 25 25 25 25 25 25 25 25 26 27 28 28 29 30 31 30 31 31 32 33 34 36 37 38 40 41 42 42 42 42 42 42
24 25 26 26 26 26 26 26 26 26 26 27 26 26 26 27 27 27 27 28 28 29 29 29 30 30 30 31 32 32 33 34 36 38 39 40 41 42 42 43 42 42 42
27 27 28 28 28 28 28 28 28 28 28 27 27 27 27 28 28 28 29 29 29 30 29 30 30 31 32 32 33 34 35 36 37 39 40 41 42 42 42 43 43 43 44
28 29 29 29 29 30 30 30 30 29 29 29 28 28 28 28 28 29 29 29 30 30 30 30 31 32 32 34 35 36 37 38 38 39 41 41 42 42 42 43 43 43 43
30 30 30 30 30 31 31 31 31 30 30 29 29 29 29 29 29 29 30 30 31 32 33 33 34 34 34 35 35 36 37 38 39 40 41 41 42 42 42 42 42 42 42
Wind_Direction
266 267 268 268 266 264 263 261 259 257 252 249 247 246 245 243 243 242 241 241 243 244 246 246 247 249 250 250 249 249 249 250 250 251 252 254 256 258 259 260 261 262 262
266 269 272 271 268 266 264 262 260 259 256 252 249 247 245 244 242 241 241 241 242 245 245 245 247 249 249 248 248 248 249 250 252 252 252 253 255 257 259 261 263 264 264
271 273 275 273 269 268 267 265 263 260 258 255 251 247 246 245 243 241 240 241 243 245 245 246 246 246 246 247 248 247 248 250 251 252 252 253 255 257 259 261 264 264 265
273 275 277 278 274 270 270 270 267 262 259 256 251 250 247 245 242 239 240 242 242 244 244 245 245 244 245 246 246 247 248 250 251 252 253 255 257 258 259 260 263 264 264
273 276 281 282 278 274 272 271 270 266 262 258 254 250 248 245 240 240 242 243 243 244 245 246 244 244 245 245 245 246 249 250 251 252 254 256 257 257 259 261 263 263 264
276 279 281 283 282 280 277 274 272 269 263 260 255 252 248 244 242 242 242 243 242 243 244 245 244 243 244 244 244 245 247 248 250 252 254 256 256 257 259 261 263 263 264
280 281 282 283 284 283 282 275 272 270 267 262 257 253 249 244 242 244 245 244 243 243 244 245 245 244 244 243 243 246 246 247 249 252 255 256 256 257 259 260 262 263 264
281 282 284 287 287 288 286 279 273 269 268 265 259 253 251 247 244 244 244 243 244 245 246 246 246 246 244 243 243 245 246 247 249 252 254 255 256 258 261 262 263 263 265
284 286 289 293 293 290 286 282 277 273 268 266 262 255 251 249 248 246 246 245 247 247 247 246 247 247 244 243 243 246 248 250 251 252 253 256 257 258 261 263 264 265 266
288 290 292 297 295 289 288 285 283 280 272 266 261 257 252 249 250 249 246 246 248 249 248 248 248 248 247 246 246 247 249 250 251 252 254 257 257 258 262 264 265 266 267
289 290 291 294 295 291 288 286 284 282 278 272 266 259 256 252 249 248 248 246 249 249 249 249 250 250 250 249 248 250 251 252 253 254 255 257 258 259 261 264 267 267 267
292 292 293 296 298 296 292 288 286 284 279 275 271 265 259 255 253 252 251 250 252 251 251 253 253 253 252 252 252 254 254 254 255 256 257 258 260 262 264 266 267 267 268
292 295 294 294 298 300 298 290 287 286 284 279 276 273 266 262 259 258 258 258 256 254 256 256 256 255 255 254 255 256 255 256 257 259 260 261 262 265 266 266 267 268 269
292 296 294 295 297 299 301 298 290 288 287 283 278 275 272 270 266 261 261 262 261 260 261 259 258 258 258 257 256 256 256 257 258 260 261 262 263 265 267 268 269 270 271
292 296 298 296 296 297 299 302 296 291 288 286 282 280 278 276 270 267 267 266 267 268 266 264 265 264 262 259 259 259 259 260 261 261 262 263 265 267 269 270 270 271 271
291 294 297 299 297 296 296 298 301 297 293 291 287 283 281 277 274 273 271 269 268 270 269 268 270 269 265 265 264 263 263 263 264 265 266 267 267 268 270 271 271 271 271
287 293 296 299 299 296 295 297 300 299 295 292 289 285 281 278 276 276 274 272 270 272 273 271 271 272 269 268 267 267 267 267 267 268 269 271 271 271 272 273 273 272 271
287 289 291 293 295 296 296 297 296 296 293 292 291 288 284 280 279 280 279 279 277 277 277 273 274 275 275 272 271 271 272 274 274 273 273 274 274 274 275 274 274 273 273
288 289 290 292 295 296 296 297 298 298 297 293 290 288 286 282 281 281 281 282 281 280 280 279 278 279 278 276 274 275 275 276 277 277 277 278 277 277 277 278 278 277 274
288 290 292 293 296 297 297 296 295 296 297 295 291 288 286 284 283 283 282 282 282 282 282 281 282 282 281 280 279 278 278 278 278 278 279 280 281 280 280 281 280 279 277
287 289 292 294 295 296 296 296 295 295 294 293 290 287 285 284 284 285 285 285 284 283 283 282 282 282 282 281 281 280 279 280 280 279 279 281 283 283 283 283 282 280 279
287 289 291 293 294 295 295 295 296 295 294 294 291 288 285 284 283 283 284 285 285 284 284 285 285 284 283 282 282 282 282 282 282 282 281 282 283 284 283 282 281 281 279
287 289 291 292 293 293 294 294 294 294 294 295 293 290 288 287 285 284 283 284 285 285 285 286 286 286 285 284 284 284 285 285 284 284 283 283 284 285 283 282 281 280 279
286 288 290 291 291 292 292 293 293 293 294 294 293 291 289 287 286 285 285 284 285 286 287 287 287 287 286 285 285 284 284 286 286 285 285 285 286 286 284 282 281 281 280
286 288 289 290 290 291 291 291 291 292 293 293 291 290 290 289 288 286 287 287 287 288 288 288 288 288 287 286 286 285 285 285 286 286 285 286 287 286 286 285 283 281 280
286 288 288 289 289 290 291 291 291 291 292 292 291 290 290 290 288 288 288 289 290 290 290 289 289 288 288 288 287 286 286 287 287 286 287 287 286 286 286 286 285 283 281
Height
5710 5709 5708 5706 5705 5704 5704 5704 5704 5704 5705 5707 5710 5714 5718 5722 5726 5731 5736 5742 5746 5751 5754 5758 5762 5765 5768 5771 5774 5776 5779 5782 5784 5786 5789 5791 5792 5794 5795 5796 5797 5798 5798
5704 5702 5700 5699 5697 5696 5696 5695 5695 5695 5696 5698 5700 5704 5707 5711 5716 5720 5725 5730 5735 5739 5743 5747 5750 5754 5757 5760 5763 5766 5768 5772 5774 5777 5779 5781 5784 5786 5787 5788 5789 5789 5790
5697 5696 5694 5692 5690 5689 5689 5688 5687 5687 5687 5689 5691 5694 5697 5700 5704 5709 5713 5718 5723 5727 5731 5735 5739 5742 5746 5749 5752 5755 5758 5761 5764 5766 5769 5771 5774 5777 5778 5779 5780 5780 5780
5691 5690 5688 5686 5684 5683 5682 5681 5680 5679 5679 5680 5682 5684 5687 5690 5693 5697 5702 5706 5711 5715 5718 5722 5726 5730 5733 5737 5741 5744 5748 5750 5753 5756 5758 5761 5764 5766 5768 5769 5770 5770 5770
5686 5684 5682 5680 5679 5677 5676 5674 5673 5672 5672 5673 5674 5675 5678 5680 5683 5687 5691 5695 5699 5703 5706 5710 5713 5718 5722 5725 5729 5733 5736 5739 5742 5745 5747 5750 5752 5754 5756 5758 5759 5760 5760
5681 5679 5678 5676 5674 5672 5670 5668 5667 5666 5665 5665 5666 5668 5670 5672 5675 5679 5682 5685 5689 5692 5695 5699 5702 5706 5710 5714 5718 5721 5725 5728 5731 5734 5736 5738 5740 5743 5744 5746 5748 5749 5749
5676 5674 5673 5671 5669 5667 5665 5663 5661 5660 5659 5659 5659 5660 5662 5664 5667 5670 5672 5675 5679 5682 5685 5689 5692 5695 5699 5703 5707 5710 5713 5717 5720 5722 5725 5727 5729 5731 5732 5733 5735 5736 5737
5672 5670 5668 5666 5664 5662 5660 5658 5656 5655 5654 5653 5653 5654 5655 5657 5659 5661 5663 5666 5670 5673 5676 5679 5682 5685 5688 5692 5695 5698 5702 5705 5708 5710 5713 5715 5717 5718 5719 5721 5722 5723 5724
5669 5667 5664 5662 5660 5658 5656 5653 5652 5650 5648 5647 5647 5648 5649 5650 5651 5653 5655 5658 5661 5663 5666 5669 5672 5675 5677 5681 5684 5687 5690 5693 5696 5698 5701 5703 5704 5705 5706 5707 5707 5708 5709
5665 5663 5661 5658 5656 5653 5651 5649 5647 5646 5644 5643 5642 5642 5642 5643 5645 5646 5648 5650 5653 5655 5657 5659 5662 5664 5667 5670 5673 5675 5679 5681 5684 5686 5688 5690 5691 5692 5693 5693 5693 5693 5693
5660 5659 5657 5655 5652 5649 5647 5645 5643 5642 5640 5638 5637 5636 5637 5637 5638 5640 5641 5643 5645 5647 5649 5651 5653 5654 5657 5659 5661 5664 5666 5668 5671 5673 5675 5677 5678 5679 5679 5679 5679 5678 5678
5656 5654 5652 5650 5648 5646 5643 5641 5639 5638 5636 5634 5633 5632 5632 5632 5633 5634 5635 5636 5637 5639 5640 5642 5643 5644 5646 5647 5650 5652 5654 5656 5658 5660 5662 5664 5665 5666 5666 5665 5665 5664 5663
5652 5650 5648 5646 5644 5642 5640 5638 5636 5634 5632 5630 5629 5628 5627 5627 5628 5628 5629 5630 5630 5631 5632 5633 5634 5635 5636 5637 5639 5640 5642 5644 5646 5648 5649 5651 5652 5653 5653 5652 5651 5650 5649
5648 5646 5644 5642 5640 5638 5636 5634 5632 5630 5628 5627 5625 5624 5623 5623 5623 5623 5623 5623 5623 5623 5624 5624 5624 5625 5626 5627 5628 5629 5630 5632 5633 5635 5636 5637 5638 5639 5638 5637 5636 5635 5634
5644 5642 5640 5638 5636 5634 5632 5630 5628 5626 5624 5622 5621 5620 5619 5619 5618 5617 5617 5616 5616 5617 5617 5616 5616 5616 5616 5617 5618 5619 5619 5620 5621 5622 5623 5624 5625 5625 5624 5623 5622 5620 5619
5640 5639 5637 5635 5632 5630 5628 5626 5624 5622 5620 5618 5617 5615 5615 5614 5613 5612 5611 5611 5610 5610 5609 5608 5608 5607 5607 5608 5608 5609 5609 5610 5610 5611 5611 5611 5611 5611 5610 5608 5607 5605 5603
5636 5634 5632 5631 5628 5626 5624 5622 5620 5618 5615 5614 5612 5611 5609 5608 5608 5607 5605 5604 5603 5602 5601 5601 5600 5599 5599 5599 5599 5598 5598 5599 5599 5599 5599 5599 5598 5597 5595 5594 5592 5590 5588
5631 5630 5628 5626 5624 5622 5620 5618 5616 5613 5611 5609 5606 5605 5603 5602 5601 5600 5599 5597 5596 5595 5594 5593 5592 5591 5590 5590 5589 5589 5588 5588 5588 5588 5587 5586 5585 5584 5582 5580 5578 5575 5574
5626 5625 5623 5621 5619 5617 5614 5612 5610 5608 5605 5603 5601 5599 5597 5596 5595 5593 5592 5590 5589 5588 5586 5585 5584 5582 5581 5580 5579 5578 5578 5577 5577 5576 5575 5574 5572 5571 5568 5566 5564 5562 5560
5621 5619 5618 5615 5613 5611 5608 5606 5604 5601 5599 5597 5594 5592 5591 5589 5587 5586 5584 5583 5581 5580 5578 5576 5575 5573 5571 5570 5569 5567 5566 5566 5565 5564 5563 5561 5559 5557 5555 5552 5550 5548 5546
5616 5614 5612 5609 5607 5604 5602 5599 5597 5594 5592 5589 5587 5584 5582 5581 5579 5577 5576 5574 5572 5571 5569 5567 5565 5563 5561 5559 5557 5556 5555 5554 5553 5552 5551 5549 5546 5544 5541 5539 5537 5534 5532
5610 5608 5605 5603 5600 5597 5595 5592 5589 5586 5584 5581 5578 5575 5573 5572 5570 5569 5567 5565 5563 5561 5559 5557 5555 5552 5550 5548 5547 5545 5544 5543 5542 5540 5538 5536 5533 5531 5528 5525 5523 5520 5517
5603 5601 5598 5596 5593 5590 5587 5584 5582 5578 5575 5572 5569 5566 5565 5563 5562 5560 5558 5556 5554 5552 5550 5547 5545 5542 5540 5538 5537 5535 5533 5531 5530 5528 5526 5523 5520 5517 5515 5512 5509 5506 5503
5595 5593 5590 5587 5585 5582 5579 5575 5572 5570 5567 5564 5560 5558 5556 5554 5553 5551 5549 5547 5545 5543 5540 5538 5535 5533 5531 5529 5527 5525 5523 5520 5518 5515 5513 5510 5507 5504 5501 5498 5495 5492 5489
5585 5583 5580 5577 5575 5572 5569 5566 5563 5560 5557 5554 5552 5549 5547 5545 5543 5541 5539 5537 5535 5533 5530 5528 5526 5523 5521 5519 5516 5514 5511 5509 5506 5503 5500 5497 5493 5490 5487 5484 5480 5477 5475
5575 5572 5570 5567 5564 5561 5559 5556 5553 5550 5547 5545 5542 5540 5538 5536 5534 5532 5530 5527 5525 5522 5520 5517 5515 5512 5510 5507 5505 5502 5499 5496 5493 5490 5487 5483 5480 5477 5473 5470 5466 5463 5460